Погода в Норрчепинге

Швеция     58°35′40″N   16°10′55″E
темп.,
°C
ветер,
м/с
пор.,
м/с
влажн.,
%
обл.,
%
осадки,
мм/ч
давл.,
гПа
погр.,
м
20 июня, вс
вс2023:00+23зюз49575 0.0 1011287
02:00+18зюз238550 0.0 101272
05:00+17зюз119591 0.0 101125
08:00+22ююз227454 0.0 1012503
11:00+28ююз253356 0.0 10111367
14:00+31юв684091 0.0 10081923
17:00+29ююв6104678 0.0 10061019
20:00+25ююв612597 0.3 1005727
21 июня, пн
пн2123:00+20ю4148389 0.9 1006458
02:00+18юз399862 2.2 1006395
05:00+14зюз399668 0.0 1008412
08:00+15зюз378199 0.0 1009455
11:00+22юз3645100 0.0 10101211
14:00+27юз3532100 0.0 10091635
17:00+26юв564120 0.0 1008754
20:00+22вюв487125 0.0 1008473
22 июня, вт
вт2223:00+16вюв399871 0.0 1008246
02:00+17вюв2598100 0.1 1007122
05:00+17вюв2297100 0.5 100776
08:00+19зюз1293100 2.0 1007284
11:00+19з3486100 0.9 1008610
14:00+19з4586100 0.9 1010578
17:00+17сз468786 0.1 1012486
20:00+15ссз3485100 0.1 1013532
23 июня, ср
ср2323:00+14ссз359098 0.0 1015340
02:00+13с269072 0.0 1015304
05:00+13ссз1289100 0.0 1016203
08:00+15с227861 0.0 1017524
11:00+21с225671 0.0 1017955
14:00+25ссв114890 0.0 10161644
17:00+22в3358100 0.0 1017556
20:00+18вюв357399 0.0 1017322
24 июня, чт
чт2423:00+13в259831 0.0 1018121
02:00+12в239840 0.0 101986
05:00+13всв259558 0.0 1017126
08:00+15всв127799 0.0 1018235
11:00+18в026573 0.0 1017451
14:00+24юв114772 0.0 10161247
17:00+25ююв114440 0.0 10151581
20:00+20ююз1367100 0.0 1014131